User: anonymous   Login
Location: Observatorio Las Palmas
(29.0667°N, 110.9333°W)
Time: 11:28:41
(UTC-07:00)
Language:

Skynet4D Del rocket - Orbit

View from above orbital plane
View from above orbital plane
View from above satellite
View from above satellite

Ground track
Ground track

The orbit data is extracted from the following two-line orbital elements,

1 25135U 98002B   14354.28714692  .00000187  00000-0  55534-4 0  2626
2 25135 026.8870 295.1818 0356593 204.6882 314.6126 13.62279572844344
Epoch (UTC): 20 December 2014 06:53:29
Eccentricity: 0.0356593
inclination: 26.8870°
perigee height: 763 km
apogee height: 1291 km
right ascension of ascending node: 295.1818°
argument of perigee: 204.6882°
revolutions per day: 13.62279572
mean anomaly at epoch: 314.6126°
orbit number at epoch: 84434

The dashed part of the orbit path shows where the satellite is in the earth's shadow,  

DLR